EW9042 Weather Reports


time (UTC)temp
C
wind
direction
speed
KPH
gust
KPH
rain 1hr
cm
rain 24hr
cm
rain mn
cm
humidity
%
barometer
mb
20260505041520 10 320 0.0 3.2 0.18 1.57 1.55 95 1011.4
20260505041018 10 321 0.0 8.0 0.18 1.55 1.55 95 1011.4
20260505040515 10 332 0.0 8.0 0.15 1.52 1.50 95 1011.5
20260505040013 10 336 0.0 8.0 0.18 1.50 1.45 95 1011.6
20260505035517 10 355 0.0 6.4 0.20 1.50 1.45 95 1011.6
20260505035012 10 337 0.0 8.0 0.25 1.50 1.45 95 1011.6
20260505034512 10 325 1.6 8.0 0.28 1.45 1.42 95 1011.7
20260505034015 10 330 0.0 0.0 0.30 1.45 1.42 95 1011.8
20260505033510 10 330 0.0 6.4 0.30 1.45 1.42 95 1011.8
20260505033009 10 330 0.0 6.4 0.30 1.42 1.42 95 1011.9
20260505032508 10 331 0.0 0.0 0.30 1.42 1.42 95 1012.0
20260505032008 10 331 0.0 0.0 0.28 1.42 1.40 95 1012.0
20260505031509 10 331 0.0 0.0 0.28 1.40 1.37 94 1012.1
20260505031110 10 331 0.0 0.0 0.25 1.37 1.37 94 1012.1
20260505030510 10 331 0.0 0.0 0.28 1.37 1.35 94 1012.1
20260505030006 10 331 0.0 0.0 0.23 1.32 1.30 94 1012.1
20260505025507 10 331 0.0 8.0 0.23 1.27 1.27 94 1012.2
20260505025009 10 331 0.0 8.0 0.20 1.24 1.22 94 1012.2
20260505024505 10 329 0.0 0.0 0.18 1.19 1.17 94 1012.3
20260505024003 10 306 0.0 4.8 0.18 1.17 1.17 94 1012.2
20260505023503 10 321 0.0 1.6 0.18 1.17 1.14 94 1012.3
20260505023010 10 11 0.0 4.8 0.20 1.17 1.14 94 1012.2
20260505022503 10 338 0.0 4.8 0.20 1.14 1.12 94 1012.1
20260505022102 10 333 0.0 0.0 0.20 1.14 1.12 94 1012.1
20260505021502 10 328 0.0 8.0 0.20 1.12 1.09 94 1012.1
20260505021002 10 333 0.0 8.0 0.18 1.09 1.09 94 1012.1
20260505020600 10 344 0.0 4.8 0.18 1.09 1.09 94 1012.1
20260505020100 10 344 0.0 9.7 0.18 1.09 1.07 94 1012.1
20260505015559 10 323 0.0 9.7 0.15 1.07 1.04 94 1012.1
20260505015058 10 325 0.0 3.2 0.15 1.04 1.02 94 1012.3
20260505014606 10 331 0.0 8.0 0.15 1.02 0.99 94 1012.3
20260505014056 11 327 1.6 8.0 0.15 0.99 0.99 94 1012.3
20260505013559 11 334 0.0 4.8 0.15 0.99 0.97 94 1012.3
20260505013058 11 334 0.0 6.4 0.15 0.97 0.94 94 1012.3
20260505012555 11 329 0.0 6.4 0.13 0.94 0.91 94 1012.4
20260505012055 11 331 0.0 0.0 0.15 0.94 0.91 94 1012.5
20260505011555 11 329 0.0 0.0 0.15 0.91 0.89 94 1012.5
20260505011053 11 329 0.0 0.0 0.18 0.91 0.89 94 1012.6
20260505010554 11 329 0.0 0.0 0.23 0.91 0.89 94 1012.5
20260505010112 11 329 0.0 0.0 0.23 0.89 0.89 94 1012.5
20260505005552 11 328 0.0 1.6 0.25 0.89 0.89 94 1012.6
20260505005052 11 327 0.0 1.6 0.30 0.89 0.86 94 1012.6
20260505004551 11 338 0.0 6.4 0.30 0.86 0.84 94 1012.6
20260505004049 11 337 0.0 6.4 0.33 0.86 0.84 94 1012.7
20260505003549 11 339 0.0 0.0 0.36 0.84 0.81 94 1012.7
20260505003054 11 337 0.0 0.0 0.38 0.81 0.79 94 1012.8
20260505002548 11 337 0.0 0.0 0.43 0.81 0.79 94 1012.9
20260505002048 11 337 0.0 0.0 0.43 0.79 0.79 93 1012.8
20260505001548 11 337 0.0 0.0 0.43 0.76 0.71 93 1012.8
20260505001048 11 337 0.0 8.0 0.43 0.71 0.71 93 1012.9
20260505000546 11 337 0.0 8.0 0.43 0.71 0.69 93 1012.9
20260505000048 11 342 0.0 9.7 0.43 0.66 0.64 93 1013.0
20260504235545 11 342 0.0 9.7 0.43 0.61 0.61 93 1013.0
20260504235046 11 346 0.0 3.2 0.41 0.58 0.56 93 1013.0
20260504234544 11 348 0.0 0.0 0.41 0.56 0.53 93 1013.1
20260504234043 11 348 0.0 0.0 0.38 0.51 0.51 93 1013.1
20260504233542 11 348 0.0 0.0 0.36 0.48 0.46 93 1013.1
20260504233043 11 348 0.0 0.0 0.36 0.43 0.43 93 1013.2
20260504232542 11 348 0.0 0.0 0.33 0.41 0.38 93 1013.1
20260504232043 11 348 0.0 0.0 0.30 0.36 0.33 93 1013.2
20260504231546 11 348 0.0 0.0 0.28 0.33 0.30 93 1013.1
20260504231040 11 348 0.0 0.0 0.28 0.30 0.28 92 1013.2
20260504230542 11 348 0.0 0.0 0.23 0.25 0.23 92 1013.3
20260504230044 11 348 0.0 0.0 0.20 0.23 0.20 92 1013.3
20260504225540 11 348 0.0 0.0 0.20 0.20 0.18 92 1013.3
20260504225039 11 348 0.0 0.0 0.18 0.18 0.15 92 1013.3
20260504224539 11 348 0.0 0.0 0.15 0.15 0.15 92 1013.3
20260504224038 11 348 0.0 0.0 0.15 0.15 0.13 92 1013.3
20260504223541 11 348 0.0 0.0 0.10 0.10 0.08 92 1013.3
20260504223038 11 348 0.0 0.0 0.08 0.08 0.05 91 1013.4
20260504222537 11 348 0.0 0.0 0.05 0.05 0.05 91 1013.3
20260504222037 11 348 0.0 0.0 0.05 0.05 0.05 91 1013.3
20260504221548 11 348 0.0 0.0 0.05 0.05 0.03 91 1013.3
20260504221036 11 348 0.0 0.0 0.03 0.03 0.00 91 1013.3
20260504220536 11 348 0.0 0.0 0.03 0.03 0.00 90 1013.3
20260504220035 11 348 0.0 0.0 0.03 0.03 0.00 91 1013.4
20260504215535 11 348 0.0 0.0 0.00 0.00 0.00 91 1013.4
20260504215034 11 348 0.0 0.0 0.00 0.00 0.00 90 1013.4
20260504214535 11 348 0.0 0.0 0.00 0.00 0.00 90 1013.3
20260504214034 11 348 0.0 0.0 0.00 0.00 0.00 90 1013.3
20260504213534 11 348 0.0 0.0 0.00 0.00 0.00 90 1013.3
20260504213046 11 348 0.0 0.0 0.00 0.00 0.00 90 1013.4
20260504212533 11 348 0.0 0.0 0.00 0.00 0.00 90 1013.4
20260504212033 11 348 0.0 0.0 0.00 0.00 0.00 89 1013.4
20260504211537 12 348 0.0 0.0 0.00 0.00 0.00 89 1013.4
20260504211033 12 348 0.0 0.0 0.00 0.00 0.00 89 1013.4
20260504210533 12 348 0.0 0.0 0.00 0.00 0.00 89 1013.4
20260504210033 12 348 0.0 0.0 0.00 0.00 0.00 89 1013.4
20260504205532 12 348 0.0 0.0 0.00 0.00 0.00 89 1013.5
20260504205032 12 348 0.0 0.0 0.00 0.00 0.00 89 1013.5
20260504204532 12 348 0.0 0.0 0.00 0.00 0.00 89 1013.5
20260504204031 12 348 0.0 0.0 0.00 0.00 0.00 89 1013.5
20260504203531 12 325 0.0 6.4 0.00 0.00 0.00 89 1013.5
20260504203044 12 325 0.0 6.4 0.00 0.00 0.00 88 1013.5
20260504202533 12 346 0.0 6.4 0.00 0.00 0.00 88 1013.4
20260504202030 12 350 0.0 6.4 0.00 0.00 0.00 88 1013.4
20260504201531 12 342 0.0 0.0 0.00 0.00 0.00 88 1013.4
20260504201031 12 342 0.0 0.0 0.00 0.00 0.00 88 1013.4
20260504200531 12 342 0.0 0.0 0.00 0.00 0.00 88 1013.4
20260504200031 12 342 0.0 0.0 0.00 0.00 0.00 87 1013.4
20260504195530 12 342 0.0 0.0 0.00 0.00 0.00 87 1013.3
20260504195030 12 342 0.0 0.0 0.00 0.00 0.00 87 1013.3
20260504194538 12 342 0.0 0.0 0.00 0.00 0.00 87 1013.2
20260504194030 12 342 0.0 0.0 0.00 0.00 0.00 86 1013.1
20260504193533 12 346 0.0 0.0 0.00 0.00 0.00 86 1013.0
20260504193030 13 350 0.0 0.0 0.00 0.00 0.00 86 1013.1
20260504192529 13 350 0.0 0.0 0.00 0.00 0.00 86 1013.0
20260504192032 13 347 0.0 0.0 0.00 0.00 0.00 85 1013.0
20260504191536 13 360 0.0 0.0 0.00 0.00 0.00 86 1013.0
20260504191029 13 5 0.0 0.0 0.00 0.00 0.00 86 1012.9
20260504190529 13 5 0.0 6.4 0.00 0.00 0.00 85 1012.9
20260504190029 13 5 0.0 6.4 0.00 0.00 0.00 85 1012.9
20260504185530 13 5 0.0 6.4 0.00 0.00 0.00 85 1012.8
20260504185032 13 5 0.0 6.4 0.00 0.00 0.00 85 1012.7
20260504184530 13 348 0.0 0.0 0.00 0.00 0.00 84 1012.7
20260504184030 13 342 0.0 0.0 0.00 0.00 0.00 84 1012.7
20260504183527 13 30 0.0 0.0 0.00 0.00 0.00 83 1012.8
20260504183028 13 54 0.0 0.0 0.00 0.00 0.00 83 1012.8
20260504182527 13 54 0.0 3.2 0.00 0.00 0.00 82 1012.8
20260504182027 13 38 0.0 12.9 0.00 0.00 0.00 82 1012.7
20260504181527 13 20 1.6 12.9 0.00 0.00 0.00 82 1012.7
20260504181029 13 36 0.0 9.7 0.00 0.00 0.00 82 1012.7
20260504180527 13 17 1.6 9.7 0.00 0.00 0.00 81 1012.7
20260504180027 14 346 0.0 8.0 0.00 0.00 0.00 81 1012.7
20260504175530 14 37 0.0 12.9 0.00 0.00 0.00 81 1012.7
20260504175026 14 29 3.2 14.5 0.00 0.00 0.00 80 1012.7
20260504174526 15 43 0.0 14.5 0.00 0.00 0.00 81 1012.6
20260504174026 15 30 3.2 16.1 0.00 0.00 0.00 82 1012.6
20260504173525 14 55 3.2 16.1 0.00 0.00 0.00 82 1012.6
20260504173027 14 32 4.8 17.7 0.00 0.00 0.00 82 1012.5
20260504172524 14 349 9.7 17.7 0.00 0.00 0.00 83 1012.5
20260504172024 14 355 1.6 20.9 0.00 0.00 0.00 82 1012.5
20260504171531 14 13 11.3 20.9 0.00 0.00 0.00 82 1012.6
20260504171025 15 5 11.3 24.1 0.00 0.00 0.00 81 1012.5
20260504170524 15 61 9.7 24.1 0.00 0.00 0.00 81 1012.6
20260504151018 16 21 9.7 17.7 0.00 0.00 0.00 70 1012.6
20260504150618 16 23 8.0 20.9 0.00 0.00 0.00 68 1012.5
20260504141018 16 45 1.6 14.5 0.00 0.23 0.00 72 1012.9
20260504140512 16 64 8.0 16.1 0.00 0.23 0.00 72 1012.9
20260504130511 16 355 11.3 20.9 0.00 0.23 0.00 77 1013.1
20260504110508 15 50 1.6 16.1 0.00 0.23 0.00 76 1013.6
20260504100502 16 37 9.7 16.1 0.00 0.23 0.00 76 1013.5
20260504081548 13 34 4.8 14.5 0.00 0.23 0.00 88 1013.2
20260504081041 12 66 3.2 8.0 0.00 0.23 0.00 90 1013.3
20260504080540 12 36 0.0 8.0 0.00 0.23 0.00 92 1013.2
20260504050517 8 351 0.0 0.0 0.00 0.23 0.00 94 1012.1
20260504050012 8 351 0.0 0.0 0.00 0.23 0.00 94 1012.1
20260504045511 8 351 0.0 0.0 0.00 0.23 0.00 95 1012.1
20260504045013 8 351 0.0 0.0 0.00 0.23 0.00 95 1012.1
20260504044510 8 351 0.0 0.0 0.00 0.23 0.00 95 1011.9
20260504044010 8 351 0.0 0.0 0.00 0.23 0.00 94 1011.9
20260504043509 8 351 0.0 0.0 0.00 0.23 0.00 94 1011.9
20260504043009 8 351 0.0 0.0 0.00 0.23 0.00 95 1012.0
20260504042509 8 351 0.0 0.0 0.00 0.23 0.00 94 1012.0
20260504042008 8 351 0.0 0.0 0.00 0.23 0.00 95 1011.9